Change the Weather History Date:

Wednesday, October 8, 2014

  Actual Average Record
Temperature  
Mean Temperature 47 °F 50 °F  
Max Temperature 61 °F 64 °F 90 °F (1960)
Min Temperature 32 °F 37 °F 19 °F (1946)
Degree Days  
Heating Degree Days 18 15  
Month to date heating degree days 120 106  
Since 1 July heating degree days 322 326  
Cooling Degree Days 0 0  
Month to date cooling degree days 0 0  
Year to date cooling degree days 466 641  
Moisture  
Dew Point 33 °F    
Average Humidity 62    
Maximum Humidity 89    
Minimum Humidity 35    
Precipitation  
Precipitation T in 0.05 in 1.50 in (1982)
Month to date precipitation T 0.44  
Year to date precipitation 20.03 15.89  
Snow  
Snow 0.00 in - - ()
Month to date snowfall 0.0  
Since 1 July snowfall 0.0  
Snow Depth 0.00 in    
Sea Level Pressure  
Sea Level Pressure 30.06 in    
Wind  
Wind Speed 8 mph (NE)    
Max Wind Speed 17 mph    
Max Gust Speed 22 mph    
Visibility 10 miles    
Events Rain    
T = Trace of Precipitation, MM = Missing Value Source: NWS Daily Summary

Daily Weather History Graph

Daily Weather History Graph

Search for Another Location

Airport or City:

Trip Planner

Search our weather history database for the weather conditions in past years. The results will help you decide how hot, cold, wet, or windy it might be!

Date:

Astronomy

Oct. 08, 2014 Rise Set
Actual Time 7:48 AM CDT 7:08 PM CDT
Civil Twilight 7:19 AM CDT 7:38 PM CDT
Nautical Twilight 6:44 AM CDT 8:12 PM CDT
Astronomical Twilight 6:10 AM CDT 8:46 PM CDT
Moon 7:22 PM CDT (10/8) 7:58 AM CDT (10/8)
Length of Visible Light 12h 19m
Length of Day
11h 19m
Full, 100% of the Moon is Illuminated
Oct 8
Full
Oct 15
Last Quarter
Oct 23
New
Oct 30
First Quarter
Nov 6
Full

Hourly Weather History & Observations

Time (CDT) Temp. Windchill Dew Point Humidity Pressure Visibility Wind Dir Wind Speed Gust Speed Precip Events Conditions
12:52 AM 36.0 °F - 28.9 °F 76% 30.01 in 10.0 mi Calm Calm - N/A   Clear
1:52 AM 39.9 °F 35.8 °F 30.9 °F 70% 30.00 in 10.0 mi WNW 5.8 mph - N/A   Clear
2:52 AM 33.1 °F - 28.9 °F 85% 30.01 in 10.0 mi Calm Calm - N/A   Clear
3:52 AM 39.9 °F - 30.9 °F 70% 30.00 in 10.0 mi Calm Calm - N/A   Clear
4:52 AM 34.0 °F 31.0 °F 28.9 °F 82% 30.01 in 10.0 mi NNW 3.5 mph - N/A   Clear
5:52 AM 33.1 °F 27.7 °F 30.0 °F 89% 30.02 in 10.0 mi North 5.8 mph - N/A   Clear
6:52 AM 34.0 °F 28.8 °F 30.0 °F 85% 30.04 in 10.0 mi North 5.8 mph - N/A   Clear
7:52 AM 34.0 °F 28.0 °F 30.0 °F 85% 30.06 in 10.0 mi North 6.9 mph - N/A   Clear
8:52 AM 42.1 °F - 35.1 °F 76% 30.07 in 10.0 mi Calm Calm - N/A   Clear
9:52 AM 46.0 °F 44.8 °F 37.0 °F 71% 30.09 in 10.0 mi NW 3.5 mph - N/A   Clear
10:52 AM 52.0 °F - 34.0 °F 50% 30.10 in 10.0 mi NE 5.8 mph - N/A   Clear
11:52 AM 54.0 °F - 34.0 °F 47% 30.09 in 10.0 mi ENE 5.8 mph - N/A   Clear
12:52 PM 53.1 °F - 33.1 °F 47% 30.10 in 10.0 mi NE 6.9 mph - N/A   Partly Cloudy
1:52 PM 57.0 °F - 33.1 °F 40% 30.07 in 10.0 mi ENE 8.1 mph - N/A   Overcast
2:52 PM 57.9 °F - 33.1 °F 39% 30.05 in 8.0 mi ENE 10.4 mph - N/A   Overcast
3:52 PM 60.1 °F - 32.0 °F 35% 30.03 in 10.0 mi East 10.4 mph - N/A   Mostly Cloudy
4:52 PM 59.0 °F - 32.0 °F 36% 30.05 in 10.0 mi East 9.2 mph - N/A   Overcast
5:52 PM 55.9 °F - 33.1 °F 42% 30.05 in 10.0 mi NE 12.7 mph - N/A   Overcast
6:52 PM 52.0 °F - 35.1 °F 53% 30.05 in 10.0 mi ENE 13.8 mph - N/A   Overcast
7:52 PM 50.0 °F - 37.9 °F 63% 30.07 in 10.0 mi ENE 13.8 mph - 0.00 in Rain Light Rain
8:52 PM 48.9 °F - 36.0 °F 61% 30.09 in 10.0 mi ENE 10.4 mph - 0.00 in   Overcast
9:52 PM 48.9 °F - 37.9 °F 66% 30.10 in 10.0 mi ENE 9.2 mph - N/A   Overcast
10:52 PM 48.9 °F - 30.9 °F 50% 30.09 in 10.0 mi ENE 15.0 mph - N/A   Mostly Cloudy
11:52 PM 48.9 °F - 30.9 °F 50% 30.11 in 10.0 mi East 11.5 mph - N/A   Overcast